Location: Newark
(3.0500°N, 36.0167°E)
Time: 03:35:13
(UTC+00:00)

OTV 5 (USA 277) - Visible Passes

Search period start: 23 July 2019 00:00
Search period end: 02 August 2019 00:00
Orbit: 299 x 335 km, 54.5° (Epoch: 13 July)

Date Brightness Start Highest point End Pass type
(mag) Time Alt. Az. Time Alt. Az. Time Alt. Az.
26 Jul ? 02:19:02 15° SSE 02:20:01 17° ESE 02:21:53 10° ENE visible
27 Jul ? 02:33:57 48° SW 02:34:31 73° WNW 02:37:06 10° NNE visible
28 Jul ? 02:48:48 13° WNW 02:49:02 13° WNW 02:50:22 10° NNW visible
